Fairfield, IL

8:21 AM CST on December 12, 2019 (GMT -0600)
Fairfield Municipal

Weather History for KFWC - October, 2019

Change the Weather History Date:

Tuesday, October 1, 2019

  Actual Average (KEVV) Record (KEVV)
Temperature  
Mean Temperature 78 °F -  
Max Temperature 92 °F 75 °F 93 °F (1919)
Min Temperature 65 °F 50 °F 34 °F (1963)
Cooling Degree Days 14    
Growing Degree Days 28 (Base 50)    
Moisture  
Dew Point 67 °F    
Average Humidity 72    
Maximum Humidity 100    
Minimum Humidity 41    
Precipitation  
Precipitation 0.00 in - - ()
Sea Level Pressure  
Sea Level Pressure 30.01 in    
Wind  
Wind Speed 1 mph ()    
Max Wind Speed 7 mph    
Max Gust Speed -    
Visibility 9.6 miles    
Events      
Averages and records for this station are not official NWS values.
T = Trace of Precipitation, MM = Missing Value Source: Averaged Metar Reports

Daily Weather History Graph

Daily Weather History Graph

Search for Another Location

Airport or City:

Astronomy

Oct. 01, 2019 Rise Set
Actual Time 6:49 AM CDT 6:36 PM CDT
Civil Twilight 6:22 AM CDT 7:03 PM CDT
Nautical Twilight 5:52 AM CDT 7:33 PM CDT
Astronomical Twilight 5:21 AM CDT 8:04 PM CDT
Moon 10:02 AM CDT (10/1) 8:52 PM CDT (10/1)
Length of Visible Light 12h 40m
Length of Day
11h 47m
Waxing Crescent, 12% of the Moon is Illuminated
Oct 1
Waxing Crescent
Oct 5
First Quarter
Oct 13
Full
Oct 21
Last Quarter
Oct 27
New

Hourly Weather History & Observations

Time (CDT) Temp. Heat Index Dew Point Humidity Pressure Visibility Wind Dir Wind Speed Gust Speed Precip Events Conditions
12:15 AM 68.4 °F - 68.4 °F 100% 30.03 in 10.0 mi Calm Calm - N/A   Clear
12:35 AM 68.0 °F - 68.0 °F 100% 30.02 in 10.0 mi Calm Calm - N/A   Clear
12:55 AM 67.5 °F - 67.5 °F 100% 30.02 in 10.0 mi Calm Calm - N/A   Clear
1:15 AM 67.5 °F - 67.5 °F 100% 30.02 in 10.0 mi Calm Calm - N/A   Clear
1:35 AM 67.5 °F - 67.5 °F 100% 30.02 in 10.0 mi Calm Calm - N/A   Clear
1:55 AM 67.1 °F - 67.1 °F 100% 30.03 in 10.0 mi Calm Calm - N/A   Clear
2:15 AM 66.7 °F - 66.7 °F 100% 30.02 in 10.0 mi Calm Calm - N/A   Clear
2:35 AM 66.6 °F - 66.6 °F 100% 30.02 in 10.0 mi Calm Calm - N/A   Clear
2:55 AM 67.1 °F - 67.1 °F 100% 30.02 in 10.0 mi Calm Calm - N/A   Clear
3:15 AM 66.4 °F - 66.4 °F 100% 30.02 in 10.0 mi Calm Calm - N/A   Clear
3:35 AM 66.2 °F - 66.2 °F 100% 30.02 in 7.0 mi Calm Calm - N/A   Clear
3:55 AM 66.6 °F - 66.6 °F 100% 30.03 in 7.0 mi Calm Calm - N/A   Clear
4:15 AM 66.0 °F - 66.0 °F 100% 30.03 in 10.0 mi Calm Calm - N/A   Clear
4:35 AM 65.8 °F - 65.8 °F 100% 30.04 in 7.0 mi Calm Calm - N/A   Clear
4:55 AM 65.7 °F - 65.7 °F 100% 30.04 in 10.0 mi Calm Calm - N/A   Clear
5:15 AM 65.1 °F - 65.1 °F 100% 30.05 in 7.0 mi Calm Calm - N/A   Clear
5:35 AM 65.8 °F - 65.8 °F 100% 30.05 in 7.0 mi Calm Calm - N/A   Clear
5:55 AM 65.3 °F - 65.3 °F 100% 30.06 in 7.0 mi Calm Calm - N/A   Clear
6:15 AM 65.3 °F - 65.3 °F 100% 30.06 in 10.0 mi Calm Calm - N/A   Mostly Cloudy
6:35 AM 66.0 °F - 66.0 °F 100% 30.07 in 7.0 mi Calm Calm - N/A   Mostly Cloudy
6:55 AM 65.3 °F - 65.3 °F 100% 30.07 in 5.0 mi Calm Calm - N/A   Scattered Clouds
7:15 AM 66.2 °F - 66.2 °F 100% 30.07 in 7.0 mi Calm Calm - N/A   Clear
7:35 AM 67.6 °F - 67.6 °F 100% 30.07 in 7.0 mi Calm Calm - N/A   Clear
7:55 AM 70.5 °F - 70.0 °F 98% 30.07 in 10.0 mi Calm Calm - N/A   Clear
8:15 AM 72.7 °F - 69.1 °F 88% 30.07 in 10.0 mi Calm Calm - N/A   Clear
8:35 AM 75.0 °F - 69.3 °F 82% 30.07 in 10.0 mi Calm Calm - N/A   Clear
8:55 AM 76.1 °F - 69.3 °F 79% 30.07 in 10.0 mi Calm Calm - N/A   Clear
9:15 AM 79.0 °F - 69.4 °F 72% 30.07 in 10.0 mi Calm Calm - N/A   Clear
9:35 AM 80.8 °F 83.9 °F 69.3 °F 68% 30.07 in 10.0 mi SSW 3.5 mph - N/A   Clear
9:55 AM 82.8 °F 86.4 °F 69.6 °F 64% 30.07 in 10.0 mi South 3.5 mph - N/A   Clear
10:15 AM 84.6 °F 88.8 °F 69.8 °F 61% 30.07 in 10.0 mi SSW 3.5 mph - N/A   Clear
10:35 AM 86.2 °F 89.4 °F 67.8 °F 54% 30.06 in 10.0 mi SW 6.9 mph - N/A   Clear
10:55 AM 87.8 °F 91.1 °F 67.8 °F 51% 30.06 in 10.0 mi SW 3.5 mph - N/A   Clear
11:15 AM 88.3 °F 91.2 °F 67.1 °F 49% 30.06 in 10.0 mi SW 4.6 mph - N/A   Clear
11:35 AM 89.6 °F 93.0 °F 67.5 °F 48% 30.05 in 10.0 mi SW 5.8 mph - N/A   Clear
11:55 AM 89.8 °F 92.5 °F 66.6 °F 46% 30.05 in 10.0 mi WSW 5.8 mph - N/A   Clear
12:15 PM 90.0 °F 92.4 °F 66.2 °F 45% 30.04 in 10.0 mi SW 6.9 mph - N/A   Clear
12:35 PM 90.1 °F 92.7 °F 66.2 °F 45% 30.04 in 10.0 mi SW 4.6 mph - N/A   Clear
12:55 PM 89.4 °F 91.9 °F 66.0 °F 46% 30.03 in 10.0 mi SW 5.8 mph - N/A   Scattered Clouds
1:15 PM 89.4 °F 91.9 °F 66.0 °F 46% 30.02 in 10.0 mi SW 3.5 mph - N/A   Clear
1:35 PM 90.9 °F 93.5 °F 66.2 °F 44% 30.01 in 10.0 mi SSW 3.5 mph - N/A   Scattered Clouds
1:55 PM 90.9 °F 93.1 °F 65.7 °F 43% 30.01 in 10.0 mi SW 4.6 mph - N/A   Scattered Clouds
2:15 PM 89.8 °F 92.1 °F 66.0 °F 45% 30.01 in 10.0 mi SW 3.5 mph - N/A   Mostly Cloudy
2:35 PM 91.8 °F 94.2 °F 65.8 °F 42% 30.00 in 10.0 mi SW 4.6 mph - N/A   Mostly Cloudy
2:55 PM 90.7 °F 93.2 °F 65.8 °F 44% 30.00 in 10.0 mi SW 5.8 mph - N/A   Mostly Cloudy
3:15 PM 92.3 °F 95.6 °F 66.7 °F 43% 29.99 in 10.0 mi SW 4.6 mph - N/A   Mostly Cloudy
3:35 PM 89.6 °F 92.2 °F 66.4 °F 46% 29.99 in 10.0 mi Calm Calm - N/A   Scattered Clouds
3:55 PM 92.3 °F 95.1 °F 66.4 °F 42% 29.98 in 10.0 mi SSW 3.5 mph - N/A   Scattered Clouds
4:15 PM 91.8 °F 94.6 °F 66.4 °F 43% 29.97 in 10.0 mi SW 3.5 mph - N/A   Scattered Clouds
4:35 PM 91.4 °F 93.2 °F 64.9 °F 41% 29.97 in 10.0 mi South 6.9 mph - N/A   Clear
4:55 PM 90.7 °F 92.4 °F 64.8 °F 42% 29.97 in 10.0 mi SSW 4.6 mph - N/A   Clear
5:15 PM 90.0 °F 92.0 °F 65.3 °F 44% 29.97 in 10.0 mi South 6.9 mph - N/A   Clear
5:35 PM 88.7 °F 91.1 °F 65.8 °F 47% 29.97 in 10.0 mi SSW 4.6 mph - N/A   Clear
5:55 PM 87.6 °F 89.7 °F 65.7 °F 48% 29.96 in 10.0 mi South 3.5 mph - N/A   Clear
6:15 PM 85.8 °F 87.9 °F 65.8 °F 51% 29.96 in 10.0 mi Calm Calm - N/A   Clear
6:35 PM 83.5 °F 85.7 °F 66.2 °F 56% 29.96 in 10.0 mi Calm Calm - N/A   Clear
6:55 PM 82.0 °F 84.3 °F 66.2 °F 59% 29.96 in 10.0 mi Calm Calm - N/A   Clear
7:15 PM 79.9 °F - 66.4 °F 63% 29.96 in 10.0 mi Calm Calm - N/A   Clear
7:35 PM 79.7 °F - 66.2 °F 63% 29.96 in 10.0 mi Calm Calm - N/A   Clear
7:55 PM 78.6 °F - 66.2 °F 66% 29.96 in 10.0 mi Calm Calm - N/A   Clear
8:15 PM 78.6 °F - 66.2 °F 66% 29.96 in 10.0 mi South 3.5 mph - N/A   Clear
8:35 PM 77.7 °F - 66.2 °F 68% 29.96 in 10.0 mi Calm Calm - N/A   Clear
8:55 PM 77.9 °F - 66.2 °F 67% 29.96 in 10.0 mi SSW 3.5 mph - N/A   Clear
9:15 PM 77.7 °F - 66.2 °F 68% 29.96 in 10.0 mi Calm Calm - N/A   Clear
9:35 PM 76.6 °F - 66.2 °F 70% 29.96 in 10.0 mi South 4.6 mph - N/A   Clear
9:55 PM 76.8 °F - 66.4 °F 70% 29.96 in 10.0 mi Calm Calm - N/A   Clear
10:15 PM 77.2 °F - 66.4 °F 69% 29.97 in 10.0 mi SSW 3.5 mph - N/A   Clear
10:35 PM 76.8 °F - 66.4 °F 70% 29.97 in 10.0 mi SSW 3.5 mph - N/A   Clear
10:55 PM 76.1 °F - 66.4 °F 72% 29.96 in 10.0 mi Calm Calm - N/A   Clear
11:15 PM 75.2 °F - 66.6 °F 74% 29.96 in 10.0 mi SSW 3.5 mph - N/A   Clear
11:35 PM 74.7 °F - 66.6 °F 76% 29.96 in 10.0 mi Calm Calm - N/A   Clear
11:55 PM 74.3 °F - 66.6 °F 77% 29.96 in 10.0 mi Calm Calm - N/A   Clear